[[{"header":{"parameterUnit":"m.s-1","parameterCategory":1,"la1":30.2991,"la2":30.254,"lo1":-89.0895,"lo2":-89.0444,"dy":0.0017,"dx":0.0017,"nx":28,"ny":28,"refTime":"2024-08-18T09:00:00:Z","depth":0,"parameterNumber":2,"parameterNumberName":"U-component_of_WINDS"},"data":[0,0,0,0,0,0,0,0,0,0,0,0,0,0,0,0,0,0,0,0,0,0,0,0,0,0,0,0,0,0,0,0,0,0,0,0,0,0,0,0,0,0,0,0,0,0,0,0,0,0,0,0,0,0,0,0,0,0,4.9306,4.9308,0,4.9446,4.9448,4.9449,4.9322,4.9317,4.9312,4.9307,4.9452,4.946,4.9469,0,0,0,0,0,0,0,0,0,0,0,0,0,4.8931,4.8939,4.9306,4.9308,4.9309,4.9446,4.9448,4.945,4.9323,4.9317,4.9311,4.9305,4.9449,4.9459,4.947,0,0,0,0,0,0,0,0,0,0,0,0,0,4.9085,4.8941,4.9306,4.9263,4.926,4.9445,4.9448,4.945,4.9324,4.9317,4.9309,4.9302,4.9446,4.9458,4.9471,4.9707,0,0,4.9511,4.9517,0,0,0,0,0,0,0,0,4.9076,4.9099,4.9267,4.9266,4.9264,4.9359,4.9369,4.9536,4.9326,4.93,4.9307,4.9298,4.9427,4.9441,4.9485,4.9713,4.9719,4.9512,4.952,4.9526,4.9529,0,0,0,0,0,0,0,4.9066,4.9092,4.9361,4.927,4.9268,4.9237,4.9251,4.94,4.9406,4.9302,4.9293,4.9311,4.9425,4.9473,4.9487,4.9722,4.9512,4.9523,4.9531,4.9536,5.0153,5.0161,0,0,0,0,0,0,4.9059,4.9084,4.9357,4.9365,4.9149,4.925,4.9265,4.9336,4.9404,4.9406,4.9318,4.9305,4.9454,4.9472,4.9492,4.9773,4.9526,4.9538,4.9545,5.0144,5.0154,5.0164,0,0,0,0,0,0,4.9052,4.9085,4.9351,4.9223,4.9254,4.9265,4.9346,4.9343,4.939,4.9415,4.9416,4.9365,4.9449,4.9474,4.9654,4.9776,4.9544,4.9555,5.0134,5.0147,5.0159,5.0337,0,0,0,0,0,0,4.9042,4.9083,4.9172,4.9225,4.9261,4.9511,4.9353,4.9351,4.9413,4.9397,4.946,4.9463,4.9445,4.9636,4.9667,4.979,4.9566,5.0123,5.014,5.0155,5.032,5.0354,5.0384,0,0,0,0,0,4.9029,4.9216,4.9177,4.9211,4.9373,4.9519,4.9539,4.9514,4.9423,4.9513,4.953,4.9461,4.9758,4.9655,4.969,4.9818,5.0115,5.0135,5.0154,5.0306,5.0348,5.0383,0,0,0,0,0,0,4.9177,4.9222,4.9179,4.939,4.9451,4.9497,4.9609,4.9558,4.9647,4.9629,4.9593,4.9609,4.98,4.9827,4.9712,5.0051,4.9922,4.9949,5.0026,5.0066,5.0097,5.0087,4.9576,0,0,0,0,0,4.9234,4.9348,4.9382,4.9564,4.9597,4.9599,4.9661,4.9636,4.9699,4.9724,4.9753,4.9818,4.9925,4.9997,5.0097,5.0323,5.0336,5.0429,5.0461,5.0486,5.0511,5.0634,5.0676,5.0227,5.0227,5.0226,0,0,4.9353,4.9392,4.9466,4.9595,4.964,4.976,4.9621,4.9753,4.9843,4.9744,4.9917,4.9942,5.0011,5.0216,5.0308,5.0244,5.0638,5.0511,5.0531,5.0542,5.0658,5.0701,5.0739,5.024,5.0238,5.0236,0,0,4.9631,4.9672,4.9829,4.9877,4.9947,4.9947,4.9985,5.0039,5.0051,5.0224,5.0154,5.0259,5.0445,5.0498,5.0549,5.085,5.0791,5.0884,5.1049,5.117,5.1205,5.1237,5.1346,5.1385,5.0907,5.0908,5.0908,0,4.977,4.9948,4.9916,5.0055,5.0114,5.0031,5.0191,5.0239,5.0338,5.0382,5.0309,5.0542,5.0582,5.08,5.0873,5.0917,5.0961,5.0876,5.1203,5.1234,5.1262,5.1366,5.1407,5.0919,5.0918,5.0916,5.0915,0,5.0117,5.0241,5.036,5.0458,5.0531,5.068,5.0672,5.0749,5.0719,5.0727,5.0905,5.0951,5.106,5.111,5.1081,5.1324,5.1283,5.1207,5.1078,5.1317,5.1413,5.1453,5.0934,5.093,5.0927,5.0925,0,0,5.0491,5.0572,5.0616,5.0661,5.0732,5.0828,5.0974,5.108,5.1149,5.122,5.1342,5.1502,5.1433,5.1492,5.1468,5.1574,5.1812,5.1486,5.1487,5.1546,5.2085,5.2143,5.2189,5.1773,5.1781,5.1787,5.208,0,5.0774,5.1026,5.1003,5.1243,5.1358,5.1282,5.1409,5.1467,5.1479,5.158,5.1593,5.1707,5.1607,5.1642,5.1744,5.1762,5.192,5.174,5.1888,5.1894,5.1874,5.2239,5.2299,5.2574,5.2117,5.2124,5.2128,0,5.1136,5.1222,5.1473,5.1529,5.1577,5.1691,5.1788,5.1885,5.195,5.1951,5.2018,5.1977,5.2125,5.1992,5.2196,5.2074,5.2133,5.2151,5.2161,5.2175,5.2026,5.2264,5.2661,5.2703,5.2187,5.2183,5.2178,0,5.1386,5.1564,5.1738,5.1778,5.1847,5.193,5.1963,5.2021,5.2087,5.2172,5.2215,5.2316,5.2372,5.2452,5.244,5.2344,5.2649,5.2514,5.2655,5.2656,5.2723,5.2719,5.3136,5.276,5.2759,5.2758,5.2758,0,5.1705,5.1862,5.1851,5.1959,5.2133,5.2106,5.228,5.2303,5.2355,5.2466,5.2406,5.2512,5.2489,5.2595,5.2586,5.2758,5.2783,5.2789,5.2785,5.2795,5.2795,5.2834,5.2815,5.2769,5.2767,5.2765,5.2763,0,5.2013,5.2013,5.2197,5.2248,5.2265,5.2392,5.2436,5.2538,5.2545,5.2686,5.2718,5.273,5.2852,5.2847,5.2985,5.2979,5.3191,5.3164,5.3169,5.3164,5.3305,5.3293,5.3763,5.3824,5.3408,5.3412,5.3415,0,5.2217,5.2336,5.2401,5.2471,5.2509,5.2623,5.269,5.2668,5.2741,5.2826,5.2919,5.3034,5.3126,5.3324,5.3345,5.3451,5.3427,5.3585,5.3443,5.345,5.3431,5.3425,5.3437,5.3613,5.3618,5.3622,5.3625,0,5.2579,5.2573,5.2672,5.2773,5.2856,5.2934,5.3005,5.3066,5.3052,5.3138,5.3261,5.3333,5.3474,5.359,5.3692,5.3726,5.3675,5.3669,5.3708,5.372,5.3718,5.3722,5.3246,5.3659,5.3655,5.3653,5.3651,5.365,5.2842,5.2945,5.3007,5.3121,5.3172,5.3241,5.334,5.336,5.3463,5.3576,5.3557,5.3696,5.376,5.3891,5.3935,5.4044,5.3988,5.4043,5.4058,5.4072,5.4088,5.37,5.4062,5.4061,5.406,5.4059,5.4059,0,5.3201,5.3238,5.3343,5.3445,5.3535,5.3478,5.3555,5.3634,5.3757,5.3821,5.3913,5.4056,5.4169,5.42,5.4309,5.4391,5.437,5.4421,5.4415,5.4424,5.4131,5.4088,5.4436,5.4436,5.4436,5.4435,5.4435,5.4435,5.3399,5.3572,5.3574,5.3772,5.3807,5.3942,5.3991,5.4055,5.4106,5.4269,5.4362,5.4382,5.4433,5.4546,5.4648,5.4654,5.4698,5.4758,5.4755,5.4482,5.4444,5.4408,5.4367,5.4768,5.4768,5.5039,5.5041,5.5043]},{"header":{"parameterUnit":"m.s-1","parameterCategory":1,"la1":30.2991,"la2":30.254,"lo1":-89.0895,"lo2":-89.0444,"dy":0.0017,"dx":0.0017,"nx":28,"ny":28,"refTime":"2024-08-18T09:00:00:Z","depth":0,"parameterNumber":3,"parameterNumberName":"V-component_of_WINDS"},"data":[0,0,0,0,0,0,0,0,0,0,0,0,0,0,0,0,0,0,0,0,0,0,0,0,0,0,0,0,0,0,0,0,0,0,0,0,0,0,0,0,0,0,0,0,0,0,0,0,0,0,0,0,0,0,0,0,0,0,-0.1973,-0.1972,0,-0.1905,-0.1904,-0.1903,-0.1887,-0.1887,-0.1888,-0.1888,-0.1814,-0.1812,-0.1809,0,0,0,0,0,0,0,0,0,0,0,0,0,-0.2085,-0.2083,-0.1973,-0.1972,-0.1971,-0.1905,-0.1904,-0.1903,-0.1887,-0.1887,-0.1888,-0.1888,-0.1815,-0.1812,-0.1809,0,0,0,0,0,0,0,0,0,0,0,0,0,-0.2029,-0.2083,-0.1973,-0.1955,-0.1953,-0.1905,-0.1904,-0.1903,-0.1887,-0.1887,-0.1888,-0.1889,-0.1816,-0.1812,-0.1808,-0.1772,0,0,-0.1797,-0.1796,0,0,0,0,0,0,0,0,-0.2032,-0.2025,-0.1959,-0.1956,-0.1954,-0.1905,-0.1916,-0.1859,-0.1886,-0.1912,-0.1888,-0.1889,-0.1843,-0.1837,-0.1823,-0.1768,-0.1765,-0.1797,-0.1795,-0.1793,-0.1792,0,0,0,0,0,0,0,-0.2036,-0.2027,-0.1946,-0.1958,-0.1955,-0.1949,-0.1942,-0.1905,-0.1874,-0.191,-0.1908,-0.1901,-0.1842,-0.1827,-0.1821,-0.1764,-0.1797,-0.1794,-0.1792,-0.179,-0.1677,-0.1676,0,0,0,0,0,0,-0.2044,-0.2031,-0.1948,-0.1944,-0.1996,-0.1947,-0.1939,-0.192,-0.1875,-0.1868,-0.19,-0.19,-0.1832,-0.1825,-0.1818,-0.1773,-0.1793,-0.179,-0.1788,-0.1678,-0.1677,-0.1676,0,0,0,0,0,0,-0.2046,-0.2036,-0.1951,-0.1987,-0.1976,-0.1944,-0.1923,-0.1918,-0.1903,-0.1868,-0.1862,-0.189,-0.1833,-0.1824,-0.1784,-0.177,-0.1788,-0.1785,-0.1679,-0.1678,-0.1676,-0.1682,0,0,0,0,0,0,-0.2049,-0.2037,-0.2024,-0.1987,-0.1974,-0.1918,-0.1922,-0.1916,-0.1897,-0.1896,-0.1857,-0.1851,-0.1833,-0.179,-0.1781,-0.1766,-0.1782,-0.168,-0.1678,-0.1677,-0.1683,-0.1681,-0.1679,0,0,0,0,0,-0.2053,-0.2027,-0.2023,-0.2013,-0.1957,-0.1918,-0.191,-0.1891,-0.1896,-0.1882,-0.1859,-0.1852,-0.1774,-0.1786,-0.1775,-0.1759,-0.1681,-0.1679,-0.1677,-0.1683,-0.1681,-0.1679,0,0,0,0,0,0,-0.2061,-0.2021,-0.2017,-0.1978,-0.1952,-0.1915,-0.1896,-0.1889,-0.186,-0.186,-0.1836,-0.1828,-0.179,-0.177,-0.1785,-0.1722,-0.1727,-0.1723,-0.1736,-0.1733,-0.1732,-0.1737,-0.1779,0,0,0,0,0,-0.2058,-0.2031,-0.1998,-0.1967,-0.1954,-0.1928,-0.191,-0.1898,-0.1869,-0.1857,-0.1832,-0.1803,-0.1772,-0.1751,-0.1721,-0.168,-0.1671,-0.1664,-0.1662,-0.1661,-0.1658,-0.1635,-0.1632,-0.167,-0.167,-0.167,0,0,-0.2052,-0.2027,-0.2011,-0.1968,-0.1946,-0.1917,-0.1918,-0.1888,-0.1866,-0.1852,-0.1814,-0.1794,-0.176,-0.1721,-0.1702,-0.1703,-0.1646,-0.1659,-0.1658,-0.1655,-0.1633,-0.1629,-0.1626,-0.1669,-0.1669,-0.1669,0,0,-0.2026,-0.2005,-0.1977,-0.1955,-0.1923,-0.1906,-0.19,-0.1865,-0.1852,-0.1813,-0.1802,-0.1776,-0.1723,-0.1699,-0.168,-0.1648,-0.164,-0.1639,-0.1629,-0.1608,-0.1605,-0.1602,-0.159,-0.1586,-0.1635,-0.1635,-0.1635,0,-0.2021,-0.198,-0.1962,-0.1934,-0.1915,-0.1903,-0.1874,-0.1853,-0.1812,-0.1799,-0.1802,-0.1736,-0.1712,-0.1667,-0.1659,-0.1644,-0.1636,-0.1642,-0.1607,-0.1604,-0.1601,-0.159,-0.1585,-0.1635,-0.1635,-0.1635,-0.1635,0,-0.1976,-0.1947,-0.1928,-0.1891,-0.187,-0.1841,-0.1819,-0.1799,-0.179,-0.1772,-0.1734,-0.1705,-0.1669,-0.1658,-0.1647,-0.1611,-0.1613,-0.1612,-0.1616,-0.1598,-0.1587,-0.1582,-0.1635,-0.1635,-0.1635,-0.1635,0,0,-0.195,-0.1906,-0.1899,-0.1883,-0.1847,-0.1824,-0.1795,-0.1761,-0.1745,-0.1717,-0.1692,-0.1648,-0.1647,-0.1626,-0.1613,-0.1594,-0.157,-0.1595,-0.1594,-0.1591,-0.1529,-0.153,-0.1525,-0.1566,-0.1565,-0.1564,-0.1532,0,-0.192,-0.1869,-0.1853,-0.181,-0.1783,-0.1772,-0.1747,-0.1722,-0.1705,-0.1679,-0.166,-0.1629,-0.1631,-0.1618,-0.1599,-0.1577,-0.1557,-0.1579,-0.154,-0.1539,-0.1549,-0.1519,-0.152,-0.1491,-0.1527,-0.1527,-0.1526,0,-0.1877,-0.1851,-0.1805,-0.1775,-0.1763,-0.174,-0.1709,-0.1685,-0.1656,-0.1645,-0.1623,-0.1611,-0.158,-0.1587,-0.1543,-0.1558,-0.1542,-0.1529,-0.1527,-0.1522,-0.1531,-0.1513,-0.1481,-0.1477,-0.1519,-0.152,-0.152,0,-0.1863,-0.1816,-0.1783,-0.1769,-0.1733,-0.1717,-0.1701,-0.1673,-0.1655,-0.1627,-0.1614,-0.1583,-0.1565,-0.1541,-0.1521,-0.1529,-0.1479,-0.1484,-0.1468,-0.1468,-0.1457,-0.1458,-0.1421,-0.1447,-0.1447,-0.1447,-0.1447,0,-0.183,-0.1802,-0.1777,-0.1756,-0.1725,-0.1708,-0.1677,-0.166,-0.1636,-0.1611,-0.16,-0.1577,-0.1553,-0.1526,-0.1511,-0.1476,-0.1468,-0.1458,-0.1454,-0.1459,-0.146,-0.1447,-0.1448,-0.1446,-0.1446,-0.1447,-0.1447,0,-0.1808,-0.179,-0.1754,-0.1723,-0.1715,-0.1693,-0.1666,-0.1645,-0.1629,-0.1598,-0.159,-0.1564,-0.1532,-0.1511,-0.147,-0.146,-0.1422,-0.1419,-0.1432,-0.143,-0.1415,-0.1417,-0.1368,-0.1361,-0.1392,-0.1392,-0.1392,0,-0.1788,-0.1767,-0.1735,-0.1719,-0.1703,-0.1677,-0.1658,-0.164,-0.1621,-0.1588,-0.1572,-0.154,-0.1513,-0.1463,-0.144,-0.1409,-0.1404,-0.139,-0.1399,-0.1405,-0.1403,-0.1405,-0.1403,-0.1388,-0.1387,-0.1387,-0.1387,0,-0.1754,-0.1747,-0.1722,-0.1694,-0.1673,-0.1649,-0.1626,-0.1613,-0.1591,-0.157,-0.1539,-0.1518,-0.1478,-0.1446,-0.1413,-0.1395,-0.1387,-0.1385,-0.1379,-0.1383,-0.1392,-0.1387,-0.1428,-0.1385,-0.1385,-0.1386,-0.1386,-0.1386,-0.1732,-0.1714,-0.1689,-0.1661,-0.1642,-0.1621,-0.16,-0.1583,-0.1557,-0.1524,-0.1515,-0.1482,-0.1454,-0.141,-0.1391,-0.1365,-0.1366,-0.1358,-0.1356,-0.1354,-0.1354,-0.1397,-0.1359,-0.1359,-0.1359,-0.1359,-0.1359,0,-0.1698,-0.1682,-0.1657,-0.1626,-0.1604,-0.1601,-0.1575,-0.1557,-0.1529,-0.1505,-0.148,-0.1444,-0.1414,-0.1389,-0.1357,-0.1341,-0.1337,-0.1333,-0.1334,-0.133,-0.1355,-0.1363,-0.1338,-0.1338,-0.1338,-0.1338,-0.1338,-0.1338,-0.1677,-0.1645,-0.1635,-0.1594,-0.1578,-0.1547,-0.1533,-0.1513,-0.1494,-0.1455,-0.1431,-0.1416,-0.1391,-0.1358,-0.133,-0.1324,-0.1312,-0.131,-0.1302,-0.1326,-0.1328,-0.133,-0.1338,-0.1308,-0.1308,-0.1279,-0.1279,-0.1279]}]]